Time,TemperatureF,DewpointF,PressureIn,WindDirection,WindDirectionDegrees,WindSpeedMPH,WindSpeedGustMPH,Humidity,HourlyPrecipIn,Conditions,Clouds,dailyrainin,SoftwareType,DateUTC
2013-07-19 00:02:00,63.0,-99.9,-100.00,North,-999,-999.0,-999.0,-999,0.00,,,-99.99,,2013-07-19 06:02:00,
2013-07-19 00:11:00,63.0,-99.9,-100.00,North,-999,-999.0,-999.0,-999,0.00,,,-99.99,,2013-07-19 06:11:00,
2013-07-19 00:53:00,62.0,-99.9,-100.00,North,-999,-999.0,-999.0,-999,0.00,,,-99.99,,2013-07-19 06:53:00,
2013-07-19 01:02:00,62.0,-99.9,-100.00,North,-999,-999.0,-999.0,-999,0.00,,,-99.99,,2013-07-19 07:02:00,
2013-07-19 01:12:00,62.0,-99.9,-100.00,North,-999,-999.0,-999.0,-999,0.00,,,-99.99,,2013-07-19 07:12:00,
2013-07-19 01:53:00,60.0,-99.9,-100.00,North,-999,-999.0,-999.0,-999,0.00,,,-99.99,,2013-07-19 07:53:00,
2013-07-19 02:02:00,60.0,-99.9,-100.00,North,-999,-999.0,-999.0,-999,0.00,,,-99.99,,2013-07-19 08:02:00,
2013-07-19 02:12:00,60.0,-99.9,-100.00,North,-999,-999.0,-999.0,-999,0.00,,,-99.99,,2013-07-19 08:12:00,
2013-07-19 02:52:00,62.0,-99.9,-100.00,North,-999,-999.0,-999.0,-999,0.00,,,-99.99,,2013-07-19 08:52:00,
2013-07-19 03:02:00,62.0,-99.9,-100.00,North,-999,-999.0,-999.0,-999,0.00,,,-99.99,,2013-07-19 09:02:00,
2013-07-19 03:11:00,62.0,-99.9,-100.00,North,-999,-999.0,-999.0,-999,0.00,,,-99.99,,2013-07-19 09:11:00,
2013-07-19 03:52:00,60.0,-99.9,-100.00,North,-999,-999.0,-999.0,-999,0.00,,,-99.99,,2013-07-19 09:52:00,
2013-07-19 04:01:00,60.0,-99.9,-100.00,North,-999,-999.0,-999.0,-999,0.00,,,-99.99,,2013-07-19 10:01:00,
2013-07-19 04:11:00,60.0,-99.9,-100.00,North,-999,-999.0,-999.0,-999,0.00,,,-99.99,,2013-07-19 10:11:00,
2013-07-19 04:52:00,58.0,-99.9,-100.00,North,-999,-999.0,-999.0,-999,0.00,,,-99.99,,2013-07-19 10:52:00,
2013-07-19 05:02:00,58.0,-99.9,-100.00,North,-999,-999.0,-999.0,-999,0.00,,,-99.99,,2013-07-19 11:02:00,
2013-07-19 05:12:00,58.0,-99.9,-100.00,North,-999,-999.0,-999.0,-999,0.00,,,-99.99,,2013-07-19 11:12:00,
2013-07-19 05:52:00,56.0,-99.9,-100.00,North,-999,-999.0,-999.0,-999,0.00,,,0.06,,2013-07-19 11:52:00,
2013-07-19 06:02:00,56.0,-99.9,-100.00,North,-999,-999.0,-999.0,-999,0.00,,,0.06,,2013-07-19 12:02:00,
2013-07-19 06:12:00,56.0,-99.9,-100.00,North,-999,-999.0,-999.0,-999,0.00,,,0.06,,2013-07-19 12:12:00,
2013-07-19 06:53:00,55.0,-99.9,-100.00,North,-999,-999.0,-999.0,-999,0.00,,,0.06,,2013-07-19 12:53:00,
2013-07-19 07:02:00,55.0,-99.9,-100.00,North,-999,-999.0,-999.0,-999,0.00,,,0.06,,2013-07-19 13:02:00,
2013-07-19 07:12:00,55.0,-99.9,-100.00,North,-999,-999.0,-999.0,-999,0.00,,,0.06,,2013-07-19 13:12:00,
2013-07-19 07:53:00,58.0,-99.9,-100.00,North,-999,-999.0,-999.0,-999,0.00,,,0.06,,2013-07-19 13:53:00,
2013-07-19 08:02:00,58.0,-99.9,-100.00,North,-999,-999.0,-999.0,-999,0.00,,,0.06,,2013-07-19 14:02:00,
2013-07-19 08:12:00,58.0,-99.9,-100.00,North,-999,-999.0,-999.0,-999,0.00,,,0.06,,2013-07-19 14:12:00,
2013-07-19 08:53:00,64.0,-99.9,-100.00,North,-999,-999.0,-999.0,-999,0.00,,,0.06,,2013-07-19 14:53:00,
2013-07-19 09:02:00,64.0,-99.9,-100.00,North,-999,-999.0,-999.0,-999,0.00,,,0.06,,2013-07-19 15:02:00,
2013-07-19 09:11:00,64.0,-99.9,-100.00,North,-999,-999.0,-999.0,-999,0.00,,,0.06,,2013-07-19 15:11:00,
2013-07-19 09:52:00,68.0,-99.9,-100.00,North,-999,-999.0,-999.0,-999,0.00,,,0.06,,2013-07-19 15:52:00,
2013-07-19 10:01:00,68.0,-99.9,-100.00,North,-999,-999.0,-999.0,-999,0.00,,,0.06,,2013-07-19 16:01:00,
2013-07-19 10:11:00,68.0,-99.9,-100.00,North,-999,-999.0,-999.0,-999,0.00,,,0.06,,2013-07-19 16:11:00,
2013-07-19 10:53:00,73.0,-99.9,-100.00,North,-999,-999.0,-999.0,-999,0.00,,,0.06,,2013-07-19 16:53:00,
2013-07-19 11:02:00,73.0,-99.9,-100.00,North,-999,-999.0,-999.0,-999,0.00,,,0.06,,2013-07-19 17:02:00,
2013-07-19 11:12:00,73.0,-99.9,-100.00,North,-999,-999.0,-999.0,-999,0.00,,,0.06,,2013-07-19 17:12:00,
2013-07-19 11:52:00,76.0,-99.9,-100.00,North,-999,-999.0,-999.0,-999,0.00,,,0.06,,2013-07-19 17:52:00,
2013-07-19 12:01:00,76.0,-99.9,-100.00,North,-999,-999.0,-999.0,-999,0.00,,,0.06,,2013-07-19 18:01:00,
2013-07-19 12:11:00,76.0,-99.9,-100.00,North,-999,-999.0,-999.0,-999,0.00,,,0.06,,2013-07-19 18:11:00,
2013-07-19 12:52:00,75.0,-99.9,-100.00,North,-999,-999.0,-999.0,-999,0.00,,,0.06,,2013-07-19 18:52:00,
2013-07-19 13:02:00,75.0,-99.9,-100.00,North,-999,-999.0,-999.0,-999,0.00,,,0.06,,2013-07-19 19:02:00,
2013-07-19 13:11:00,75.0,-99.9,-100.00,North,-999,-999.0,-999.0,-999,0.00,,,0.06,,2013-07-19 19:11:00,
2013-07-19 13:52:00,76.0,-99.9,-100.00,North,-999,-999.0,-999.0,-999,0.00,,,0.06,,2013-07-19 19:52:00,
2013-07-19 14:02:00,76.0,-99.9,-100.00,North,-999,-999.0,-999.0,-999,0.00,,,0.06,,2013-07-19 20:02:00,
2013-07-19 14:11:00,76.0,-99.9,-100.00,North,-999,-999.0,-999.0,-999,0.00,,,0.06,,2013-07-19 20:11:00,
2013-07-19 14:52:00,76.0,-99.9,-100.00,North,-999,-999.0,-999.0,-999,0.00,,,0.06,,2013-07-19 20:52:00,
2013-07-19 15:02:00,76.0,-99.9,-100.00,North,-999,-999.0,-999.0,-999,0.00,,,0.06,,2013-07-19 21:02:00,
2013-07-19 15:11:00,76.0,-99.9,-100.00,North,-999,-999.0,-999.0,-999,0.00,,,0.06,,2013-07-19 21:11:00,
2013-07-19 15:52:00,76.0,-99.9,-100.00,North,-999,-999.0,-999.0,-999,0.00,,,0.06,,2013-07-19 21:52:00,
2013-07-19 16:02:00,76.0,-99.9,-100.00,North,-999,-999.0,-999.0,-999,0.00,,,0.06,,2013-07-19 22:02:00,
2013-07-19 16:11:00,76.0,-99.9,-100.00,North,-999,-999.0,-999.0,-999,0.00,,,0.06,,2013-07-19 22:11:00,
2013-07-19 16:52:00,75.0,-99.9,-100.00,North,-999,-999.0,-999.0,-999,0.00,,,0.06,,2013-07-19 22:52:00,
2013-07-19 17:02:00,75.0,-99.9,-100.00,North,-999,-999.0,-999.0,-999,0.00,,,0.06,,2013-07-19 23:02:00,
2013-07-19 17:11:00,75.0,-99.9,-100.00,North,-999,-999.0,-999.0,-999,0.00,,,0.06,,2013-07-19 23:11:00,
2013-07-19 18:52:00,72.0,-99.9,-100.00,North,-999,-999.0,-999.0,-999,0.00,,,0.04,,2013-07-20 00:52:00,
2013-07-19 19:02:00,72.0,-99.9,-100.00,North,-999,-999.0,-999.0,-999,0.00,,,0.04,,2013-07-20 01:02:00,
2013-07-19 19:11:00,72.0,-99.9,-100.00,North,-999,-999.0,-999.0,-999,0.00,,,0.04,,2013-07-20 01:11:00,
2013-07-19 19:53:00,68.0,-99.9,-100.00,North,-999,-999.0,-999.0,-999,-99.99,,,0.05,,2013-07-20 01:53:00,
2013-07-19 20:02:00,68.0,-99.9,-100.00,North,-999,-999.0,-999.0,-999,-99.99,,,0.05,,2013-07-20 02:02:00,
2013-07-19 20:12:00,68.0,-99.9,-100.00,North,-999,-999.0,-999.0,-999,-99.99,,,0.05,,2013-07-20 02:12:00,
2013-07-19 20:52:00,67.0,-99.9,-100.00,North,-999,-999.0,-999.0,-999,0.00,,,0.05,,2013-07-20 02:52:00,
2013-07-19 21:02:00,67.0,-99.9,-100.00,North,-999,-999.0,-999.0,-999,0.00,,,0.05,,2013-07-20 03:02:00,
2013-07-19 21:12:00,67.0,-99.9,-100.00,North,-999,-999.0,-999.0,-999,0.00,,,0.05,,2013-07-20 03:12:00,
2013-07-19 21:53:00,65.0,-99.9,-100.00,North,-999,-999.0,-999.0,-999,0.00,,,0.02,,2013-07-20 03:53:00,
2013-07-19 22:02:00,65.0,-99.9,-100.00,North,-999,-999.0,-999.0,-999,0.00,,,0.02,,2013-07-20 04:02:00,
2013-07-19 22:12:00,65.0,-99.9,-100.00,North,-999,-999.0,-999.0,-999,0.00,,,0.02,,2013-07-20 04:12:00,
2013-07-19 22:52:00,63.0,-99.9,-100.00,North,-999,-999.0,-999.0,-999,0.00,,,0.01,,2013-07-20 04:52:00,
2013-07-19 23:02:00,63.0,-99.9,-100.00,North,-999,-999.0,-999.0,-999,0.00,,,0.01,,2013-07-20 05:02:00,
2013-07-19 23:12:00,63.0,-99.9,-100.00,North,-999,-999.0,-999.0,-999,0.00,,,0.01,,2013-07-20 05:12:00,
2013-07-19 23:52:00,62.0,-99.9,-100.00,North,-999,-999.0,-999.0,-999,0.00,,,0.01,,2013-07-20 05:52:00,